Overview Statistics Trail Chart Weather Telemetry Raw packets
 

This is the latest recevied weather packets stored in our database for station/object N7BTW-13. If no packets are shown the sender has not sent any weather packets the latest 10 day(s).

<< 10 11 12 13 14 15 16 >>
Time Temp. Humidity Pressure Rain* Wind** Luminosity Snow
1788464407 16.11° C 81% - 0 mm - - -
1788463807 16.11° C 81% - 0 mm - - -
1788463207 16.11° C 82% - 0 mm - - -
1788462608 16.11° C 83% - 0 mm - - -
1788462007 16.11° C 83% - 0 mm - - -
1788461408 16.11° C 81% - 0 mm - - -
1788460809 16.67° C 82% - 0 mm - - -
1788460210 16.67° C 83% - 0 mm - - -
1788459607 16.67° C 83% - 0 mm - - -
1788459008 16.67° C 89% - 0 mm - - -
1788458407 16.11° C 87% - 0 mm - - -
1788457807 17.22° C 86% - 0 mm - - -
1788457210 16.11° C 90% - 0 mm - - -
1788456609 16.11° C 92% - 0.76 mm - - -
1788456007 15° C 93% - 0.76 mm - - -
1788455405 15° C 95% - 0.76 mm - - -
1788454808 15° C 94% - 0.76 mm - - -
1788454210 13.89° C 98% - 1.02 mm - - -
1788453607 13.33° C 99% - 1.02 mm - - -
1788453008 13.33° C 98% - 0.51 mm - - -
1788452408 13.33° C 98% - 1.02 mm - - -
1788451808 12.78° C 99% - 1.27 mm - - -
1788451207 12.78° C 99% - 1.27 mm - - -
1788450606 12.78° C 99% - 1.02 mm - - -
1788450007 12.78° C 99% - 1.02 mm - - -

* Rain latest hour (hover to see other rain measurements)
** Current wind speed in m/s (hover to see current wind gust speed)